Location: Austin
(30.3000°N, 97.7500°W)
Time: 11:56:10
(UTC-05:00)

Meteor 1-14 Rocket - Pass Details

Date: 26 May 2023
Orbit: 834 x 918 km, 81.3° (Epoch: 31 May)

Event Time Altitude Azimuth Distance (km) Brightness Sun altitude
Rises 21:51:58 0° 352° (N) 3,560 8.2 -16.8°
Reaches altitude 10° 21:54:27 10° 352° (N) 2,613 7.4 -17.3°
Maximum altitude 22:00:27 88° 266° (W) 917 4.3 -18.3°
Enters shadow 22:04:39 20° 175° (S) 1,944 5.7 -19.0°
